Wind_Speed
19 7 15 15 11 12 7 11 12 7 20 8 14 11 12 23 18 15 20 24 28 28 28 26 27 22 26 24 24 29 34 34 35 33 32 31 35 40 38 39 35 34 33 33
10 22 17 12 13 15 18 16 19 12 13 6 9 11 9 10 9 22 20 26 33 34 32 29 22 26 29 25 27 26 30 29 33 34 31 32 32 37 41 39 41 33 37 36
21 10 17 17 16 19 17 19 13 12 19 9 3 6 6 7 9 21 26 34 32 34 34 34 26 24 27 31 27 26 25 26 28 32 35 35 32 31 39 41 39 41 36 40
18 21 17 23 22 17 17 12 12 14 8 9 5 6 7 7 12 15 28 31 42 41 28 25 26 24 29 31 32 31 24 20 21 27 33 37 38 38 37 37 37 37 38 38
19 22 22 22 26 20 19 9 11 11 7 4 17 3 5 7 10 12 9 21 26 41 32 22 24 31 25 34 31 24 20 19 23 23 32 35 38 37 31 31 32 34 39 41
23 24 18 27 22 16 18 13 18 11 3 6 14 10 9 11 10 9 17 27 34 30 24 22 25 24 32 28 21 16 15 17 19 27 31 35 37 34 32 31 32 35 36 37
23 27 20 25 18 18 16 5 8 6 6 15 7 9 18 6 16 20 20 25 19 20 23 20 28 37 31 24 18 13 15 15 15 20 32 31 33 33 35 34 34 33 35 38
19 16 27 19 30 21 20 14 7 11 12 15 10 12 11 19 31 31 28 36 29 26 23 29 34 29 25 19 15 13 13 15 18 19 22 29 33 31 32 35 35 35 37 40
16 19 8 24 24 25 26 16 21 12 10 0 6 11 8 21 17 15 22 24 27 30 31 28 24 22 19 17 13 13 13 19 22 25 27 30 32 31 32 33 34 34 35 43
10 9 23 22 30 21 24 16 15 11 17 20 8 12 7 4 11 17 12 19 29 34 32 26 23 20 16 16 17 17 17 19 21 26 28 28 29 29 30 29 29 29 30 31
25 16 7 7 25 30 22 19 10 5 10 14 14 15 9 11 5 5 10 17 20 29 27 25 23 22 20 20 19 18 13 15 19 19 20 22 22 23 27 28 27 27 28 29
26 11 23 26 18 13 28 26 22 12 10 18 19 14 1 13 8 4 2 17 17 24 30 28 29 28 26 23 19 15 10 14 17 18 17 20 21 23 25 25 24 23 23 24
16 16 18 15 18 24 15 19 23 23 10 18 17 22 14 19 15 10 9 14 21 23 25 36 35 32 29 24 20 13 11 13 16 20 21 22 24 26 25 24 23 23 25 26
4 9 10 21 25 19 11 24 19 28 21 21 17 20 10 18 25 21 23 29 27 32 32 36 34 33 28 24 21 16 13 11 13 19 22 24 26 26 25 25 25 25 25 24
6 6 12 18 23 24 28 23 22 23 28 26 24 24 21 16 11 11 13 10 24 28 31 31 31 32 30 29 26 19 17 13 14 19 24 23 24 24 24 25 25 25 24 26
3 5 7 10 20 23 22 31 30 25 25 30 26 24 19 18 26 11 10 16 25 30 34 34 32 32 34 32 30 25 22 16 17 22 24 23 24 25 25 26 27 27 26 22
2 2 2 13 11 22 18 30 32 33 22 22 27 27 16 15 14 22 26 21 21 27 29 35 36 33 32 33 34 28 26 20 20 25 25 26 27 27 27 26 26 24 22 21
7 5 4 8 10 18 10 22 29 32 31 19 22 23 22 23 31 30 31 40 36 39 36 36 41 39 35 34 33 31 29 28 27 29 29 31 31 29 28 25 26 26 24 20
12 11 8 8 13 17 18 15 27 30 35 32 26 24 27 32 22 17 44 45 36 26 22 30 32 33 36 36 37 37 35 35 32 34 34 33 31 30 29 29 28 25 19 17
16 14 11 11 13 16 9 15 25 24 26 25 26 22 20 15 9 19 36 34 34 34 38 31 30 29 32 39 41 40 39 39 36 36 36 35 32 31 31 30 25 20 17 14
13 13 20 18 15 11 21 26 36 26 12 26 35 34 29 17 14 31 36 39 33 28 27 24 22 25 35 41 42 40 38 39 37 36 38 35 33 33 31 23 18 15 14 15
12 7 11 12 13 20 17 24 21 27 33 32 28 28 33 34 29 23 14 24 23 22 20 18 21 28 36 40 40 37 38 38 37 37 36 34 31 23 21 17 15 16 14 12
16 17 12 12 9 10 29 24 37 42 22 32 37 44 43 42 35 34 28 21 19 20 22 23 25 29 31 34 34 36 36 38 37 37 33 27 25 22 18 15 12 9 12 12
12 16 16 23 25 26 32 30 31 44 37 34 19 23 44 32 30 27 27 28 27 27 27 27 29 31 31 31 33 33 36 37 34 29 26 24 21 17 10 8 11 13 12 12
11 7 20 21 26 27 34 29 32 46 17 5 16 15 5 17 25 30 31 31 29 28 28 29 32 31 31 31 31 32 33 30 29 25 21 15 10 6 10 13 11 12 12 13
12 23 17 20 20 11 22 39 44 36 11 22 23 6 18 23 23 28 30 31 31 28 27 27 29 30 28 28 28 27 28 26 24 19 15 12 10 11 12 13 13 13 14 15
Wind_Direction
230 206 220 221 221 244 247 245 249 253 248 247 246 201 216 232 248 241 223 225 236 236 241 248 241 247 222 219 224 230 220 222 216 221 225 221 218 219 221 228 229 227 231 230
234 221 215 230 232 235 243 256 264 286 279 250 255 215 212 215 236 258 247 238 236 235 237 238 235 249 221 220 226 226 215 221 223 228 236 235 233 227 225 223 227 226 228 231
216 223 209 223 234 239 238 234 249 252 286 284 307 292 254 258 237 250 256 255 255 254 247 233 229 236 238 226 214 192 191 205 227 233 229 229 232 234 222 225 229 225 228 231
234 227 230 212 232 236 243 242 242 252 262 265 93 278 267 255 248 253 253 251 248 245 241 226 224 234 244 226 210 208 214 216 212 229 233 232 232 231 230 230 231 224 224 226
221 209 211 234 224 223 248 246 242 246 242 253 275 279 236 248 272 274 260 264 253 238 237 226 227 234 230 206 202 212 226 240 228 225 234 234 231 230 235 229 228 226 225 231
239 233 210 228 238 235 233 238 259 277 230 248 241 222 253 232 230 263 275 273 257 221 223 227 233 212 194 190 200 215 245 257 234 227 225 232 230 224 220 227 220 222 225 227
234 235 229 234 243 246 236 208 227 247 237 241 192 254 245 243 224 240 248 256 239 202 200 199 187 174 185 194 205 230 258 248 238 224 221 226 226 223 226 229 224 218 222 226
225 225 220 225 224 226 231 219 198 211 224 244 243 249 238 220 237 245 245 255 222 183 177 175 172 176 184 197 216 234 249 237 232 231 223 222 225 226 239 229 233 232 233 230
215 233 217 224 231 213 232 232 228 242 270 191 238 267 275 247 250 238 231 160 139 150 163 167 176 191 195 214 238 244 257 238 230 228 226 224 226 229 231 234 242 239 239 236
247 263 219 240 217 236 219 224 216 218 225 237 240 258 238 266 241 229 195 173 165 160 151 155 175 183 200 228 237 244 249 236 231 231 231 231 231 231 231 233 232 235 235 237
230 246 257 278 224 216 221 228 219 208 213 222 246 251 225 266 286 3 238 200 173 166 172 180 187 193 211 218 228 240 238 242 237 230 226 227 227 228 222 231 236 238 237 230
216 220 243 246 261 255 220 223 220 212 224 215 224 239 128 219 233 352 240 183 179 181 179 184 193 194 202 208 223 240 246 249 231 229 229 224 226 223 227 230 230 228 220 217
241 224 237 253 248 260 241 244 215 214 213 223 219 243 239 282 266 273 269 256 220 208 186 186 189 194 199 205 217 232 247 253 229 222 225 228 229 230 229 224 219 210 203 201
247 252 239 239 229 240 235 228 240 208 219 234 233 255 225 221 238 255 259 250 217 207 198 185 188 191 196 208 223 229 243 257 233 222 227 228 219 212 212 207 205 198 194 191
170 252 268 257 275 235 245 251 244 231 212 220 230 240 229 227 229 234 238 224 177 164 170 180 194 193 202 208 216 224 240 250 226 216 214 210 206 203 202 195 191 189 189 186
114 253 222 288 261 272 255 241 249 249 225 218 229 234 232 231 237 238 245 234 193 194 187 189 195 200 203 209 215 219 233 235 208 206 203 206 198 198 195 195 192 185 185 184
138 228 246 274 279 255 258 245 245 242 240 226 223 232 233 232 226 234 244 248 248 233 208 206 202 205 207 212 212 216 224 222 203 200 207 203 199 197 191 185 189 186 183 181
184 238 261 274 265 255 273 238 251 248 245 251 237 229 232 238 240 247 248 246 250 254 241 230 215 213 209 216 209 214 210 204 196 195 201 202 204 201 192 194 185 181 180 184
212 223 240 255 267 288 293 276 237 240 240 240 244 242 234 242 237 228 241 242 240 239 234 225 209 208 214 211 209 211 199 195 194 194 202 207 207 202 193 186 182 183 193 192
228 224 221 237 248 255 246 276 267 254 237 240 237 245 252 251 238 247 249 251 251 250 243 231 219 220 218 207 208 205 196 194 194 200 204 206 201 196 190 188 190 187 183 188
212 215 224 234 241 254 251 251 271 276 238 233 233 233 241 241 236 262 269 246 239 221 197 195 204 213 211 204 200 196 193 195 199 199 196 191 194 194 191 192 197 210 228 241
243 212 221 232 233 235 224 249 228 251 247 243 245 254 258 254 240 237 202 197 193 188 185 193 196 198 199 197 196 195 193 195 193 192 193 193 188 189 194 208 230 232 233 235
239 234 241 228 231 217 249 237 249 250 245 234 250 240 239 241 224 210 200 190 182 180 177 185 193 186 187 194 199 198 192 187 188 186 181 183 188 201 216 219 221 238 244 246
251 249 239 246 244 248 253 250 268 272 235 228 250 244 234 220 196 171 176 165 167 171 172 176 179 178 178 190 196 199 186 186 183 181 185 190 202 203 203 219 235 241 245 253
248 275 252 259 258 255 260 254 254 252 238 241 232 222 162 169 167 161 162 162 163 168 168 175 178 176 178 180 176 180 178 180 177 179 183 180 178 191 215 226 235 248 255 260
249 251 248 242 216 243 260 261 259 225 185 251 270 180 207 206 162 156 163 166 166 167 170 171 172 178 171 169 175 178 176 177 173 163 166 173 192 214 224 229 238 254 265 270
Height
1487 1496 1493 1491 1491 1491 1489 1491 1492 1481 1468 1474 1472 1470 1465 1462 1464 1465 1466 1466 1467 1469 1471 1474 1476 1479 1480 1481 1481 1483 1484 1487 1492 1494 1496 1500 1503 1507 1512 1515 1518 1521 1524 1528
1485 1478 1479 1485 1484 1485 1487 1489 1483 1477 1465 1468 1466 1465 1459 1457 1457 1457 1459 1462 1461 1462 1465 1466 1470 1473 1475 1476 1476 1477 1481 1484 1487 1489 1491 1494 1498 1501 1504 1510 1514 1518 1521 1522
1472 1463 1475 1477 1479 1480 1479 1481 1481 1480 1465 1462 1464 1473 1463 1455 1452 1453 1452 1452 1454 1454 1457 1459 1463 1467 1470 1471 1471 1472 1475 1479 1482 1484 1487 1490 1494 1497 1501 1503 1507 1511 1514 1518
1465 1465 1464 1468 1473 1472 1478 1467 1470 1472 1478 1488 1464 1494 1465 1455 1450 1446 1443 1444 1444 1445 1449 1451 1455 1460 1463 1464 1466 1470 1472 1474 1478 1480 1481 1482 1484 1486 1490 1495 1500 1505 1508 1511
1452 1455 1457 1462 1455 1462 1461 1465 1465 1467 1473 1474 1467 1488 1465 1452 1452 1445 1439 1435 1432 1434 1441 1444 1448 1452 1455 1458 1460 1464 1469 1472 1474 1475 1476 1478 1479 1481 1485 1490 1494 1498 1503 1505
1446 1450 1451 1445 1449 1453 1455 1461 1463 1466 1475 1490 1466 1477 1463 1455 1448 1442 1433 1428 1426 1429 1435 1439 1441 1445 1450 1454 1457 1462 1464 1467 1469 1470 1472 1473 1474 1479 1482 1485 1488 1492 1496 1500
1442 1440 1441 1445 1451 1448 1452 1466 1484 1491 1489 1472 1459 1469 1446 1437 1433 1432 1427 1422 1423 1425 1428 1432 1434 1441 1446 1449 1454 1457 1460 1461 1462 1464 1466 1469 1472 1475 1477 1480 1482 1487 1490 1493
1447 1452 1436 1430 1434 1441 1444 1454 1480 1490 1481 1465 1459 1456 1438 1425 1423 1419 1417 1416 1416 1420 1422 1428 1432 1436 1441 1446 1450 1454 1456 1457 1459 1460 1462 1465 1469 1472 1474 1476 1479 1482 1485 1488
1435 1433 1422 1427 1426 1434 1437 1448 1436 1459 1458 1473 1461 1436 1424 1417 1416 1414 1413 1410 1410 1415 1420 1424 1429 1433 1438 1443 1447 1451 1453 1454 1455 1457 1459 1460 1463 1466 1467 1470 1474 1477 1480 1483
1422 1432 1419 1412 1423 1422 1424 1428 1449 1448 1470 1477 1457 1446 1441 1415 1412 1406 1406 1404 1408 1411 1416 1421 1425 1429 1434 1439 1444 1447 1449 1450 1452 1453 1455 1456 1457 1460 1463 1465 1468 1471 1474 1476
1421 1427 1420 1416 1416 1413 1421 1424 1426 1430 1440 1460 1464 1437 1417 1415 1410 1406 1405 1403 1406 1409 1413 1417 1421 1426 1431 1435 1440 1443 1444 1445 1447 1448 1451 1452 1453 1456 1459 1461 1463 1465 1469 1472
1410 1419 1423 1415 1404 1402 1403 1408 1414 1429 1439 1427 1431 1428 1395 1401 1404 1401 1400 1401 1404 1408 1411 1413 1417 1421 1426 1430 1435 1437 1439 1441 1443 1445 1448 1450 1452 1454 1456 1457 1459 1462 1463 1468
1413 1406 1422 1419 1412 1399 1405 1400 1398 1405 1415 1423 1432 1413 1405 1396 1400 1400 1401 1403 1403 1404 1407 1409 1412 1416 1421 1426 1430 1433 1435 1438 1440 1443 1445 1447 1449 1451 1453 1454 1457 1459 1461 1465
1415 1414 1418 1416 1401 1395 1402 1397 1392 1395 1410 1412 1410 1405 1402 1399 1399 1395 1396 1395 1395 1397 1400 1403 1407 1411 1417 1421 1426 1428 1431 1433 1437 1440 1442 1444 1446 1447 1450 1452 1455 1458 1461 1464
1411 1415 1412 1407 1406 1393 1391 1392 1388 1388 1388 1399 1397 1396 1391 1392 1391 1387 1387 1388 1391 1392 1396 1399 1402 1406 1410 1415 1420 1424 1427 1428 1432 1437 1440 1442 1444 1445 1447 1450 1454 1457 1461 1463
1400 1408 1412 1415 1404 1399 1389 1381 1383 1377 1377 1378 1378 1381 1378 1379 1384 1385 1385 1388 1386 1387 1390 1393 1395 1398 1402 1406 1411 1418 1422 1424 1428 1432 1437 1440 1442 1444 1446 1448 1452 1455 1460 1464
1406 1411 1410 1400 1400 1402 1395 1386 1372 1369 1366 1370 1375 1365 1371 1372 1374 1374 1378 1381 1384 1385 1386 1388 1390 1390 1392 1397 1402 1409 1414 1418 1422 1428 1433 1436 1439 1441 1444 1448 1452 1454 1457 1461
1397 1402 1409 1403 1406 1400 1375 1369 1374 1362 1359 1361 1357 1355 1356 1356 1363 1370 1373 1373 1375 1379 1380 1380 1382 1384 1387 1389 1395 1401 1406 1412 1416 1422 1428 1432 1436 1440 1443 1446 1449 1451 1454 1458
1384 1393 1401 1401 1391 1373 1372 1371 1367 1361 1350 1347 1354 1349 1346 1350 1357 1360 1358 1362 1365 1368 1371 1373 1376 1379 1381 1383 1387 1391 1398 1405 1410 1416 1423 1428 1433 1437 1440 1443 1446 1449 1452 1455
1375 1381 1391 1391 1391 1381 1360 1358 1356 1348 1345 1339 1345 1348 1345 1344 1359 1346 1347 1356 1359 1360 1362 1366 1369 1371 1375 1378 1381 1386 1393 1399 1403 1409 1414 1420 1427 1433 1437 1441 1443 1445 1448 1450
1370 1374 1378 1379 1381 1370 1357 1358 1360 1369 1342 1325 1327 1329 1332 1338 1340 1338 1343 1346 1347 1350 1352 1356 1361 1364 1368 1372 1377 1382 1388 1393 1399 1405 1411 1417 1423 1428 1432 1437 1440 1441 1442 1443
1359 1367 1369 1367 1367 1363 1338 1338 1352 1332 1326 1320 1322 1325 1325 1328 1334 1335 1338 1336 1339 1342 1345 1349 1353 1358 1362 1367 1372 1378 1384 1389 1396 1402 1408 1414 1420 1427 1430 1433 1435 1437 1437 1438
1356 1349 1349 1341 1337 1327 1319 1325 1319 1325 1321 1317 1319 1318 1317 1316 1321 1322 1325 1331 1334 1336 1340 1343 1347 1353 1359 1364 1370 1374 1381 1387 1393 1400 1406 1412 1418 1423 1426 1428 1431 1432 1434 1435
1335 1335 1337 1335 1324 1315 1311 1317 1315 1318 1308 1309 1306 1300 1302 1307 1311 1316 1318 1323 1329 1333 1336 1339 1346 1351 1355 1362 1367 1374 1379 1386 1392 1398 1405 1410 1415 1419 1422 1425 1428 1428 1429 1430
1321 1325 1322 1315 1313 1307 1299 1302 1302 1304 1297 1295 1294 1299 1301 1303 1307 1308 1315 1321 1325 1329 1335 1339 1342 1347 1353 1360 1369 1375 1380 1386 1392 1398 1403 1408 1412 1415 1419 1422 1424 1425 1426 1426
1313 1313 1315 1300 1291 1302 1298 1294 1285 1290 1285 1291 1291 1298 1296 1301 1308 1309 1312 1318 1322 1327 1333 1338 1345 1351 1356 1365 1371 1376 1382 1386 1391 1396 1401 1406 1411 1414 1417 1418 1420 1420 1421 1420